User: anonymous   Login
Location: NJAA Observatory
(40.6819°N, 74.8979°W)
Time: 08:31:45
(UTC-04:00)
Language:

Cosmos 220 Rocket - Orbit

View from above orbital plane
View from above orbital plane
View from above satellite
View from above satellite

Ground track
Ground track

The orbit data is extracted from the following two-line orbital elements,

1 03230U 68040B   15182.66916852  .00000403  00000-0  46343-4 0  9997
2 03230 074.0355 236.4051 0030920 016.2168 343.9995 14.89261968528813
Epoch (UTC): 01 July 2015 16:03:36
Eccentricity: 0.0030920
inclination: 74.0355°
perigee height: 578 km
apogee height: 622 km
right ascension of ascending node: 236.4051°
argument of perigee: 16.2168°
revolutions per day: 14.89261968
mean anomaly at epoch: 343.9995°
orbit number at epoch: 52881

The dashed part of the orbit path shows where the satellite is in the earth's shadow,  

DLR